Location: G�ppingen
(0.0000°N, 0.0000°E)
Time: 18:48:10
(UTC+00:00)

Tiangong 2 - Pass Details

Date: 21 May 2019
Orbit: 376 x 388 km, 42.8° (Epoch: 25 June)

Event Time Altitude Azimuth Distance (km) Brightness Sun altitude
Exits shadow 05:08:13 15° 278° (W) 1,123 2.9 -11.3°
Maximum altitude 05:10:12 28° 225° (SW) 750 2.0 -10.9°
Drops below altitude 10° 05:12:59 10° 163° (SSE) 1,404 3.9 -10.2°
Sets 05:15:14 0° 151° (SSE) 2,261 5.1 -9.7°
